Location: London
(51.5074°N, 0.1278°W)
Time: 19:48:26
(UTC+01:00)

Tiangong - Visible Passes

Search period start: 26 September 2021 00:00
Search period end: 06 October 2021 00:00
Orbit: 382 x 385 km, 41.5° (Epoch: 26 September)

Date Brightness Start Highest point End Pass type
(mag) Time Alt. Az. Time Alt. Az. Time Alt. Az.
28 Sep 3.8 06:13:03 10° S 06:14:03 11° SSE 06:15:04 10° SSE visible
30 Sep 3.6 05:49:10 10° SSW 05:50:42 13° S 05:52:15 10° SE visible
01 Oct 3.9 04:51:45 11° SSE 04:51:45 11° SSE 04:52:02 10° SSE visible
01 Oct 3.5 06:25:22 10° SW 06:27:02 14° S 06:28:43 10° SSE visible
02 Oct 3.4 05:26:53 13° S 05:27:20 14° S 05:29:03 10° SE visible
03 Oct 3.5 06:02:15 10° SW 06:03:39 12° S 06:05:03 10° SSE visible
04 Oct 3.7 05:05:00 12° SSE 05:05:00 12° SSE 05:05:37 10° SSE visible
05 Oct 3.6 05:40:12 10° SSW 05:40:12 10° SSW 05:40:43 10° S visible
